Overview Statistics Trail Chart Weather Telemetry Raw packets
 

This is the latest recevied weather packets stored in our database for station/object WS4FSC-7. If no packets are shown the sender has not sent any weather packets the latest 10 day(s).

<< 7 8 9 10 11 12 13 >>
Time Temp. Humidity Pressure Rain* Wind** Luminosity Snow
1788527872 31.11° C 78% 1015 hPa - - 443 W/m² -
1788527515 31.11° C 81% 1014 hPa - - 338 W/m² -
1788527511 31.11° C 80% 1014 hPa - - 383 W/m² -
1788527331 31.11° C 81% 1014 hPa - - 338 W/m² -
1788527282 30.56° C 81% 1015 hPa - - 318 W/m² -
1788527151 30.56° C 81% 1015 hPa - - 318 W/m² -
1788526972 30.56° C 81% 1015 hPa - - 275 W/m² -
1788526612 30.56° C 84% 1014 hPa - - 220 W/m² -
1788525891 29.44° C 84% 1014 hPa - - 109 W/m² -
1788525711 29.44° C 84% 1014 hPa - - 97 W/m² -
1788525673 29.44° C 85% 1014 hPa - - 93 W/m² -
1788525531 29.44° C 85% 1014 hPa - - 93 W/m² -
1788524810 28.89° C 87% 1014 hPa - - 96 W/m² -
1788523932 27.78° C 93% 1014 hPa - - 52 W/m² -
1788523911 27.78° C 92% 1014 hPa - - 94 W/m² -
1788523731 27.78° C 93% 1014 hPa - - 52 W/m² -
1788523551 27.78° C 93% 1014 hPa - - 35 W/m² -
1788522831 27.22° C 94% 1014 hPa - - 70 W/m² -
1788522650 27.22° C 94% 1014 hPa - - 44 W/m² -
1788521930 26.67° C 94% 1014 hPa - - 19 W/m² -
1788521875 26.67° C 94% 1014 hPa - - 16 W/m² -
1788521751 26.67° C 94% 1014 hPa - - 16 W/m² -
1788519411 26.11° C 96% 1013 hPa - - 1 W/m² -
1788519051 26.11° C 96% 1013 hPa - - 0 W/m² -
1788518690 26.11° C 95% 1013 hPa - - 0 W/m² -

* Rain since midnight (hover to see other rain measurements)
** Current wind speed in m/s (hover to see current wind gust speed)